Hourly Data Report for April 17, 2004

SHERBROOKE A
QUEBEC

45°26'00.000" N
71°41'00.000" W
241.40 m
7028124
71610
YSC

Download Data

Hourly Data (April 2004)
Hourly Data Report for April 17, 2004
TIME
LST
Temp Definition
°C
Dew Point Definition
°C
Rel Hum Definition
%
Precip. Amount Definition
mm

Wind Dir Definition
10's deg

Wind Spd Definition
km/h
Visibility Definition
km
Stn Press Definition
kPa
Hmdx Definition


Wind Chill Definition


Weather Definition


00:00 -2.1 -6.3 73   10 6 15.0 99.42   -4  
01:00 -2.5 -6.1 76   10 6 15.0 99.34   -5  
02:00 -2.3 -6.4 73   7 9 15.0 99.29   -6  
03:00 -2.1 -6.1 74   10 9 15.0 99.23   -6  
04:00 -3.2 -6.5 78     0 15.0 99.24      
05:00 -2.4 -5.2 81   7 4 15.0 99.23   -4  
06:00 -1.2 -5.2 74   9 6 15.0 99.20   -3 Snow
07:00 0.9 -5.0 65   8 6 24.1 99.18     Mostly Cloudy
08:00 4.4 -4.3 53     0 24.1 99.21     Mostly Cloudy
09:00 9.1 -3.7 40   14 4 24.1 99.10     Mainly Clear
10:00 13.1 -4.8 28   25 4 24.1 99.01     Mostly Cloudy
11:00 16.7 -3.5 25   24 7 24.1 98.87     Mostly Cloudy
12:00 18.9 0.3 29   18 13 24.1 98.77     Cloudy
13:00 19.3 2.7 33   18 11 24.1 98.63     Cloudy
14:00 17.0 2.6 38   27 15 24.1 98.66     Cloudy
15:00 8.4 4.8 78   26 6 16.1 98.79     Rain Showers
16:00 7.5 6.0 90   14 9 12.9 98.70     Rain Showers
17:00 7.3 6.4 94   34 7 6.4 98.78     Drizzle
18:00 7.7 6.6 93   25 6 12.9 98.88     Drizzle
19:00 7.8 6.7 93   23 11 12.9 98.99      
20:00 7.5 6.0 90   29 17 12.9 99.12      
21:00 6.8 5.4 91   27 9 9.7 99.24      
22:00 6.5 4.9 89   26 4 9.7 99.33      
23:00 6.2 4.7 90     0 9.7 99.40      

Notes on Data Quality.

Legend

  • E = Estimated
  • M = Missing
  • NA = Not Available*
  • [empty] = Indicates an unobserved value
Date modified: